Location: Étang Rond
(42.7927°N, 1.0661°E)
Time: 22:56:03
(UTC+00:00)

Cosmos 1943 Rocket - Pass Details

Date: 08 November 2025
Orbit: 812 x 841 km, 71.0° (Epoch: 13 December)

Event Time Altitude Azimuth Distance (km) Brightness Sun altitude
Exits shadow 04:06:29 11° 354° (N) 2,382 4.5 -28.2°
Maximum altitude 04:11:14 31° 55° (NE) 1,409 3.8 -27.3°
Drops below altitude 10° 04:16:04 10° 117° (ESE) 2,399 5.3 -26.4°
Sets 04:18:45 0° 127° (SE) 3,325 6.1 -25.9°
